YO2LC Weather Reports


time (UTC)temp
C
wind
direction
speed
KPH
gust
KPH
rain 1hr
cm
rain 24hr
cm
rain mn
cm
humidity
%
barometer
mb
20260507090011 21 170 0.0 0.0 0.00 0.00 0.00 60 1016.0
20260507085508 21 170 0.0 0.0 0.00 0.00 0.00 59 1016.0
20260507085008 21 170 0.0 0.0 0.00 0.00 0.00 57 1016.0
20260507084512 21 170 0.0 0.0 0.00 0.00 0.00 57 1015.9
20260507084006 21 170 0.0 0.0 0.00 0.00 0.00 59 1015.9
20260507083505 21 170 0.0 0.0 0.00 0.00 0.00 58 1016.0
20260507083005 21 170 0.0 0.0 0.00 0.00 0.00 60 1015.9
20260507082504 21 170 0.0 0.0 0.00 0.00 0.00 60 1015.9
20260507082003 21 170 0.0 0.0 0.00 0.00 0.00 62 1015.9
20260507081503 21 170 0.0 0.0 0.00 0.00 0.00 62 1016.0
20260507081003 20 170 0.0 0.0 0.00 0.00 0.00 62 1016.0
20260507080504 20 170 0.0 0.0 0.00 0.00 0.00 63 1016.0
20260507080002 20 170 0.0 0.0 0.00 0.00 0.00 63 1016.0
20260507075502 20 170 0.0 0.0 0.00 0.00 0.00 64 1016.0
20260507075102 20 170 0.0 0.0 0.00 0.00 0.00 65 1016.0
20260507074601 19 170 0.0 0.0 0.00 0.00 0.00 66 1016.1
20260507074058 19 170 0.0 0.0 0.00 0.00 0.00 66 1016.0
20260507073557 18 170 0.0 0.0 0.00 0.00 0.00 65 1015.9
20260507073056 18 170 0.0 0.0 0.00 0.00 0.00 66 1015.9
20260507072556 18 170 0.0 0.0 0.00 0.00 0.00 67 1015.9
20260507072055 18 170 0.0 0.0 0.00 0.00 0.00 66 1015.9
20260507071554 18 170 0.0 0.0 0.00 0.00 0.00 66 1015.9
20260507071054 18 170 0.0 0.0 0.00 0.00 0.00 65 1016.0
20260507070554 18 170 0.0 0.0 0.00 0.00 0.00 65 1016.0
20260507070054 18 170 0.0 0.0 0.00 0.00 0.00 65 1015.9
20260507065551 18 170 0.0 0.0 0.00 0.00 0.00 65 1015.8
20260507065050 18 170 0.0 0.0 0.00 0.00 0.00 65 1015.8
20260507064606 18 170 0.0 0.0 0.00 0.00 0.00 65 1015.8
20260507064050 18 170 0.0 0.0 0.00 0.00 0.00 66 1015.8
20260507063549 19 170 0.0 0.0 0.00 0.00 0.00 66 1015.8
20260507063053 18 170 0.0 0.0 0.00 0.00 0.00 66 1015.8
20260507062547 18 170 0.0 0.0 0.00 0.00 0.00 65 1015.8
20260507062047 18 170 0.0 0.0 0.00 0.00 0.00 65 1015.8
20260507061546 18 170 0.0 0.0 0.00 0.00 0.00 65 1015.7
20260507061044 18 170 0.0 0.0 0.00 0.00 0.00 65 1015.6
20260507060543 18 170 0.0 0.0 0.00 0.00 0.00 65 1015.6
20260507060043 18 170 0.0 0.0 0.00 0.00 0.00 65 1015.6
20260507055541 18 170 0.0 0.0 0.00 0.00 0.00 67 1015.4
20260507055041 18 170 0.0 0.0 0.00 0.00 0.00 67 1015.5
20260507054542 17 170 0.0 0.0 0.00 0.00 0.00 70 1015.4
20260507054140 17 170 0.0 0.0 0.00 0.00 0.00 72 1015.3
20260507053539 17 170 0.0 0.0 0.00 0.00 0.00 74 1015.4
20260507053038 17 170 0.0 0.0 0.00 0.00 0.00 73 1015.5
20260507052538 17 170 0.0 0.0 0.00 0.00 0.00 72 1015.4
20260507052036 17 170 0.0 0.0 0.00 0.00 0.00 73 1015.3
20260507051535 17 170 0.0 0.0 0.00 0.00 0.00 73 1015.3
20260507051034 17 170 0.0 0.0 0.00 0.00 0.00 73 1015.2
20260507050532 17 170 0.0 0.0 0.00 0.00 0.00 72 1015.1
20260507050038 17 170 0.0 0.0 0.00 0.00 0.00 71 1015.1
20260507045534 17 170 0.0 0.0 0.00 0.00 0.00 70 1015.0
20260507045030 17 170 0.0 0.0 0.00 0.00 0.00 70 1015.0
20260507044529 17 170 0.0 0.0 0.00 0.00 0.00 71 1014.9
20260507044028 17 170 0.0 0.0 0.00 0.00 0.00 70 1014.9
20260507043527 17 170 0.0 0.0 0.00 0.00 0.00 70 1014.9
20260507043027 17 170 0.0 0.0 0.00 0.00 0.00 70 1014.8
20260507042525 17 170 0.0 0.0 0.00 0.00 0.00 70 1014.8
20260507042025 17 170 0.0 0.0 0.00 0.00 0.00 69 1014.7
20260507041537 17 170 0.0 0.0 0.00 0.00 0.00 68 1014.7
20260507041023 17 170 0.0 0.0 0.00 0.00 0.00 68 1014.7
20260507040524 17 170 0.0 0.0 0.00 0.00 0.00 67 1014.6
20260507040020 17 170 0.0 0.0 0.00 0.00 0.00 67 1014.7
20260507035519 17 170 0.0 0.0 0.00 0.00 0.00 67 1014.6
20260507035020 17 170 0.0 0.0 0.00 0.00 0.00 66 1014.5
20260507034517 17 170 0.0 0.0 0.00 0.00 0.00 65 1014.4
20260507034015 17 170 0.0 0.0 0.00 0.00 0.00 65 1014.3
20260507033514 17 170 0.0 0.0 0.00 0.00 0.00 65 1014.2
20260507033014 18 170 0.0 0.0 0.00 0.00 0.00 64 1014.2
20260507032512 18 170 0.0 0.0 0.00 0.00 0.00 64 1014.2
20260507032010 18 170 0.0 0.0 0.00 0.00 0.00 64 1014.1
20260507031509 18 170 0.0 0.0 0.00 0.00 0.00 63 1014.1
20260507031008 18 170 0.0 0.0 0.00 0.00 0.00 63 1014.2
20260507030507 18 170 0.0 0.0 0.00 0.00 0.00 63 1014.1
20260507030006 18 170 0.0 0.0 0.00 0.00 0.00 62 1014.1
20260507025508 18 170 0.0 0.0 0.00 0.00 0.00 62 1014.1
20260507025003 18 170 0.0 0.0 0.00 0.00 0.00 62 1014.0
20260507024505 18 170 0.0 0.0 0.00 0.00 0.00 61 1014.0
20260507024004 18 170 0.0 0.0 0.00 0.00 0.00 61 1013.9
20260507023600 18 170 0.0 0.0 0.00 0.00 0.00 61 1013.7
20260507023113 18 170 0.0 0.0 0.00 0.00 0.00 60 1013.8
20260507022600 18 170 0.0 0.0 0.00 0.00 0.00 60 1013.6
20260507022057 18 170 0.0 0.0 0.00 0.00 0.00 60 1013.6
20260507021556 18 170 0.0 0.0 0.00 0.00 0.00 60 1013.6
20260507021054 18 170 0.0 0.0 0.00 0.00 0.00 59 1013.7
20260507020553 18 170 0.0 0.0 0.00 0.00 0.00 59 1013.6
20260507020052 19 170 0.0 0.0 0.00 0.00 0.00 59 1013.6
20260507015550 19 170 0.0 0.0 0.00 0.00 0.00 58 1013.5
20260507015050 19 170 0.0 0.0 0.00 0.00 0.00 58 1013.4
20260507014602 19 170 0.0 0.0 0.00 0.00 0.00 58 1013.4
20260507014050 19 170 0.0 0.0 0.00 0.00 0.00 58 1013.5
20260507013549 19 170 0.0 0.0 0.00 0.00 0.00 57 1013.5
20260507013109 19 170 0.0 0.0 0.00 0.00 0.00 57 1013.4
20260507012544 19 170 0.0 0.0 0.00 0.00 0.00 57 1013.4
20260507012044 19 170 0.0 0.0 0.00 0.00 0.00 57 1013.4
20260507011543 19 170 0.0 0.0 0.00 0.00 0.00 57 1013.3
20260507011042 20 170 0.0 0.0 0.00 0.00 0.00 56 1013.4
20260507010640 20 170 0.0 0.0 0.00 0.00 0.00 56 1013.3
20260507010039 20 170 0.0 0.0 0.00 0.00 0.00 56 1013.3
20260507005538 20 170 0.0 0.0 0.00 0.00 0.00 55 1013.3
20260507005037 20 170 0.0 0.0 0.00 0.00 0.00 55 1013.3
20260507004537 20 170 0.0 0.0 0.00 0.00 0.00 55 1013.3
20260507004037 20 170 0.0 0.0 0.00 0.00 0.00 54 1013.4
20260507003536 20 170 0.0 0.0 0.00 0.00 0.00 55 1013.3
20260507003037 20 170 0.0 0.0 0.00 0.00 0.00 55 1013.2
20260507002533 20 170 0.0 0.0 0.00 0.00 0.00 55 1013.2
20260507002032 20 170 0.0 0.0 0.00 0.00 0.00 56 1013.2
20260507001531 20 170 0.0 0.0 0.00 0.00 0.00 56 1013.1
20260507001031 20 170 0.0 0.0 0.00 0.00 0.00 56 1013.2
20260507000533 20 170 0.0 0.0 0.00 0.00 0.00 56 1013.1
20260507000031 20 170 0.0 0.0 0.00 0.00 0.00 56 1013.0
20260506235527 20 170 0.0 0.0 0.00 0.00 0.00 56 1013.0
20260506235027 20 170 0.0 0.0 0.00 0.00 0.00 56 1013.0
20260506234525 20 170 0.0 0.0 0.00 0.00 0.00 56 1012.9
20260506234025 20 170 0.0 0.0 0.00 0.00 0.00 55 1013.0
20260506233523 20 170 0.0 0.0 0.00 0.00 0.00 55 1013.0
20260506233023 20 170 0.0 0.0 0.00 0.00 0.00 55 1012.9
20260506232522 20 170 0.0 0.0 0.00 0.00 0.00 54 1012.9
20260506232018 21 170 0.0 0.0 0.00 0.00 0.00 54 1012.8
20260506231619 21 170 0.0 0.0 0.00 0.00 0.00 54 1012.8
20260506231017 21 170 0.0 0.0 0.00 0.00 0.00 54 1012.8
20260506230514 21 170 0.0 0.0 0.00 0.00 0.00 54 1012.8
20260506230015 21 170 0.0 0.0 0.00 0.00 0.00 53 1012.6
20260506225516 21 170 0.0 0.0 0.00 0.00 0.00 53 1012.5
20260506225011 21 170 0.0 0.0 0.00 0.00 0.00 53 1012.4
20260506224509 21 170 0.0 0.0 0.00 0.00 0.00 53 1012.4
20260506224006 21 170 0.0 0.0 0.00 0.00 0.00 52 1012.2
20260506223505 21 170 0.0 0.0 0.00 0.00 0.00 52 1012.1
20260506223005 22 170 0.0 0.0 0.00 0.00 0.00 51 1012.0
20260506222503 22 170 0.0 0.0 0.00 0.00 0.00 51 1012.0
20260506222002 22 170 0.0 0.0 0.00 0.00 0.00 51 1011.9
20260506221502 22 170 0.0 0.0 0.00 0.00 0.00 51 1011.9
20260506221100 22 170 0.0 0.0 0.00 0.00 0.00 50 1011.8
20260506220600 22 170 0.0 0.0 0.00 0.00 0.00 50 1011.8
20260506220059 22 170 0.0 0.0 0.00 0.00 0.00 50 1011.8
20260506215559 22 170 0.0 0.0 0.00 0.00 0.00 50 1011.8
20260506215056 22 170 0.0 0.0 0.00 0.00 0.00 50 1011.8
20260506214608 22 170 0.0 0.0 0.00 0.00 0.00 49 1011.8
20260506214058 22 170 0.0 0.0 0.00 0.00 0.00 49 1011.7
20260506213556 22 170 0.0 0.0 0.00 0.00 0.00 49 1011.5
20260506213054 22 170 0.0 0.0 0.00 0.00 0.00 48 1011.6
20260506212551 22 170 0.0 0.0 0.00 0.00 0.00 49 1011.5
20260506212054 22 170 0.0 0.0 0.00 0.00 0.00 48 1011.7
20260506211551 22 170 0.0 0.0 0.00 0.00 0.00 48 1011.6
20260506211049 22 170 0.0 0.0 0.00 0.00 0.00 48 1011.7
20260506210548 22 170 0.0 0.0 0.00 0.00 0.00 48 1011.6
20260506210047 22 170 0.0 0.0 0.00 0.00 0.00 48 1011.5
20260506205546 22 170 0.0 0.0 0.00 0.00 0.00 48 1011.6
20260506205046 22 170 0.0 0.0 0.00 0.00 0.00 49 1011.7
20260506204546 22 170 0.0 0.0 0.00 0.00 0.00 49 1011.7
20260506204045 22 170 0.0 0.0 0.00 0.00 0.00 49 1011.7
20260506203544 22 170 0.0 0.0 0.00 0.00 0.00 49 1011.6
20260506203046 22 170 0.0 0.0 0.00 0.00 0.00 49 1011.7
20260506202546 22 170 0.0 0.0 0.00 0.00 0.00 49 1011.6
20260506202042 22 170 0.0 0.0 0.00 0.00 0.00 50 1011.7
20260506201542 22 170 0.0 0.0 0.00 0.00 0.00 50 1011.7
20260506201045 22 170 0.0 0.0 0.00 0.00 0.00 50 1011.6
20260506200540 22 170 0.0 0.0 0.00 0.00 0.00 51 1011.6
20260506195539 21 170 0.0 0.0 0.00 0.00 0.00 52 1011.5
20260506195039 21 170 0.0 0.0 0.00 0.00 0.00 53 1011.6
20260506194539 20 170 0.0 0.0 0.00 0.00 0.00 55 1011.6
20260506194038 18 170 0.0 0.0 0.00 0.00 0.00 60 1011.7
20260506193540 17 170 0.0 0.0 0.00 0.00 0.00 65 1011.8
20260506193037 16 170 0.0 0.0 0.00 0.00 0.00 67 1011.7
20260506192536 16 170 0.0 0.0 0.00 0.00 0.00 67 1011.8
20260506192038 16 170 0.0 0.0 0.00 0.00 0.00 66 1011.7
20260506191536 16 170 0.0 0.0 0.00 0.00 0.00 66 1011.7
20260506191034 16 170 0.0 0.0 0.00 0.00 0.00 65 1011.7
20260506190534 16 170 0.0 0.0 0.00 0.00 0.00 64 1011.7
20260506190034 17 170 0.0 0.0 0.00 0.00 0.00 65 1011.7
20260506185532 17 170 0.0 0.0 0.00 0.00 0.00 65 1011.6
20260506185031 17 170 0.0 0.0 0.00 0.00 0.00 65 1011.6
20260506184531 17 170 0.0 0.0 0.00 0.00 0.00 65 1011.6
20260506184031 17 170 0.0 0.0 0.00 0.00 0.00 64 1011.5
20260506183530 17 170 0.0 0.0 0.00 0.00 0.00 64 1011.4
20260506183030 17 170 0.0 0.0 0.00 0.00 0.00 64 1011.4
20260506182528 17 170 0.0 0.0 0.00 0.00 0.00 63 1011.4
20260506182027 18 170 0.0 0.0 0.00 0.00 0.00 62 1011.4
20260506181531 18 170 0.0 0.0 0.00 0.00 0.00 62 1011.3
20260506181026 18 170 0.0 0.0 0.00 0.00 0.00 61 1011.3
20260506180529 19 170 0.0 0.0 0.00 0.00 0.00 60 1011.2
20260506180033 19 170 0.0 0.0 0.00 0.00 0.00 60 1011.0
20260506175527 20 170 0.0 0.0 0.00 0.00 0.00 59 1011.0
20260506175023 20 170 0.0 0.0 0.00 0.00 0.00 58 1011.0
20260506174526 20 170 0.0 0.0 0.00 0.00 0.00 59 1011.1
20260506174022 21 170 0.0 0.0 0.00 0.00 0.00 57 1011.0
20260506173523 21 170 0.0 0.0 0.00 0.00 0.00 55 1011.0
20260506173021 22 170 0.0 0.0 0.00 0.00 0.00 55 1011.0
20260506172522 22 170 0.0 0.0 0.00 0.00 0.00 53 1011.1
20260506172021 23 170 0.0 0.0 0.00 0.00 0.00 52 1011.1
20260506171536 23 170 0.0 0.0 0.00 0.00 0.00 51 1011.1
20260506171019 24 170 0.0 0.0 0.00 0.00 0.00 50 1011.1
20260506170517 25 170 0.0 0.0 0.00 0.00 0.00 49 1011.1
20260506170018 26 170 0.0 0.0 0.00 0.00 0.00 47 1011.1
20260506165516 26 170 0.0 0.0 0.00 0.00 0.00 46 1011.1
20260506165016 27 170 0.0 0.0 0.00 0.00 0.00 45 1011.1
20260506164516 27 170 0.0 0.0 0.00 0.00 0.00 43 1011.1
20260506164014 27 170 0.0 0.0 0.00 0.00 0.00 42 1011.1
20260506163514 27 170 0.0 0.0 0.00 0.00 0.00 41 1011.1
20260506163020 27 170 0.0 0.0 0.00 0.00 0.00 39 1011.1
20260506162514 28 170 0.0 0.0 0.00 0.00 0.00 38 1011.1
20260506162015 28 170 0.0 0.0 0.00 0.00 0.00 37 1011.1
20260506161520 27 170 0.0 0.0 0.00 0.00 0.00 38 1011.0
20260506161012 28 170 0.0 0.0 0.00 0.00 0.00 37 1011.1
20260506160510 28 170 0.0 0.0 0.00 0.00 0.00 36 1011.2
20260506160012 28 170 0.0 0.0 0.00 0.00 0.00 35 1011.2
20260506155515 28 170 0.0 0.0 0.00 0.00 0.00 35 1011.2
20260506155007 28 170 0.0 0.0 0.00 0.00 0.00 35 1011.2
20260506154506 28 170 0.0 0.0 0.00 0.00 0.00 35 1011.2
20260506154005 28 170 0.0 0.0 0.00 0.00 0.00 34 1011.3
20260506153505 28 170 0.0 0.0 0.00 0.00 0.00 35 1011.3
20260506153004 28 170 0.0 0.0 0.00 0.00 0.00 33 1011.5
20260506152504 28 170 0.0 0.0 0.00 0.00 0.00 34 1011.6
20260506152004 28 170 0.0 0.0 0.00 0.00 0.00 35 1011.6
20260506151501 28 170 0.0 0.0 0.00 0.00 0.00 34 1011.8
20260506151100 28 170 0.0 0.0 0.00 0.00 0.00 33 1011.8
20260506150600 28 170 0.0 0.0 0.00 0.00 0.00 33 1011.8
20260506150105 28 170 0.0 0.0 0.00 0.00 0.00 33 1011.7
20260506145602 29 170 0.0 0.0 0.00 0.00 0.00 32 1011.5
20260506145058 29 170 0.0 0.0 0.00 0.00 0.00 33 1011.6
20260506144556 28 170 0.0 0.0 0.00 0.00 0.00 32 1011.6
20260506144054 28 170 0.0 0.0 0.00 0.00 0.00 33 1011.7
20260506143553 28 170 0.0 0.0 0.00 0.00 0.00 35 1011.8
20260506143051 28 170 0.0 0.0 0.00 0.00 0.00 33 1011.8
20260506142550 28 170 0.0 0.0 0.00 0.00 0.00 33 1012.1
20260506142047 28 170 0.0 0.0 0.00 0.00 0.00 34 1012.1
20260506141545 28 170 0.0 0.0 0.00 0.00 0.00 34 1012.1
20260506141044 28 170 0.0 0.0 0.00 0.00 0.00 34 1012.0
20260506140542 28 170 0.0 0.0 0.00 0.00 0.00 34 1012.1
20260506140045 28 170 0.0 0.0 0.00 0.00 0.00 33 1012.2
20260506135538 28 170 0.0 0.0 0.00 0.00 0.00 35 1012.1
20260506135036 28 170 0.0 0.0 0.00 0.00 0.00 33 1012.2
20260506134606 27 170 0.0 0.0 0.00 0.00 0.00 33 1012.2
20260506134032 27 170 0.0 0.0 0.00 0.00 0.00 33 1012.1
20260506133531 27 170 0.0 0.0 0.00 0.00 0.00 34 1012.2
20260506133030 27 170 0.0 0.0 0.00 0.00 0.00 34 1012.3
20260506132527 27 170 0.0 0.0 0.00 0.00 0.00 35 1012.3
20260506132026 27 170 0.0 0.0 0.00 0.00 0.00 35 1012.3
20260506131627 27 170 0.0 0.0 0.00 0.00 0.00 34 1012.4
20260506131023 27 170 0.0 0.0 0.00 0.00 0.00 34 1012.4
20260506130528 27 170 0.0 0.0 0.00 0.00 0.00 34 1012.4
20260506130020 27 170 0.0 0.0 0.00 0.00 0.00 35 1012.5
20260506125519 27 170 0.0 0.0 0.00 0.00 0.00 36 1012.6
20260506125017 27 170 0.0 0.0 0.00 0.00 0.00 36 1012.7
20260506124620 27 170 0.0 0.0 0.00 0.00 0.00 35 1012.6
20260506124015 27 170 0.0 0.0 0.00 0.00 0.00 36 1012.8
20260506123515 27 170 0.0 0.0 0.00 0.00 0.00 37 1012.8
20260506123014 27 170 0.0 0.0 0.00 0.00 0.00 37 1012.9
20260506122513 27 170 0.0 0.0 0.00 0.00 0.00 36 1013.0
20260506122011 27 170 0.0 0.0 0.00 0.00 0.00 38 1013.1
20260506121512 27 170 0.0 0.0 0.00 0.00 0.00 37 1013.2
20260506121010 27 170 0.0 0.0 0.00 0.00 0.00 39 1013.2
20260506120510 27 170 0.0 0.0 0.00 0.00 0.00 39 1013.3
20260506120011 27 170 0.0 0.0 0.00 0.00 0.00 38 1013.3
20260506115508 27 170 0.0 0.0 0.00 0.00 0.00 38 1013.4
20260506115007 27 170 0.0 0.0 0.00 0.00 0.00 37 1013.4
20260506114519 27 170 0.0 0.0 0.00 0.00 0.00 38 1013.5
20260506114007 27 170 0.0 0.0 0.00 0.00 0.00 39 1013.5
20260506113506 27 170 0.0 0.0 0.00 0.00 0.00 38 1013.5
20260506113007 27 170 0.0 0.0 0.00 0.00 0.00 38 1013.7
20260506112504 27 170 0.0 0.0 0.00 0.00 0.00 38 1013.7
20260506112004 27 170 0.0 0.0 0.00 0.00 0.00 39 1013.8
20260506111502 27 170 0.0 0.0 0.00 0.00 0.00 39 1013.9
20260506111002 27 170 0.0 0.0 0.00 0.00 0.00 38 1013.9
20260506110600 26 170 0.0 0.0 0.00 0.00 0.00 38 1013.9
20260506110058 26 170 0.0 0.0 0.00 0.00 0.00 37 1013.9
20260506105557 26 170 0.0 0.0 0.00 0.00 0.00 37 1013.9
20260506105056 26 170 0.0 0.0 0.00 0.00 0.00 36 1013.9
20260506104559 26 170 0.0 0.0 0.00 0.00 0.00 35 1014.1
20260506104055 26 170 0.0 0.0 0.00 0.00 0.00 35 1014.2
20260506103554 26 170 0.0 0.0 0.00 0.00 0.00 35 1014.3
20260506103052 26 170 0.0 0.0 0.00 0.00 0.00 36 1014.3
20260506102552 26 170 0.0 0.0 0.00 0.00 0.00 36 1014.3
20260506102053 26 170 0.0 0.0 0.00 0.00 0.00 36 1014.4
20260506101550 26 170 0.0 0.0 0.00 0.00 0.00 36 1014.5
20260506101048 25 170 0.0 0.0 0.00 0.00 0.00 36 1014.5
20260506100547 25 170 0.0 0.0 0.00 0.00 0.00 38 1014.6
20260506100045 25 170 0.0 0.0 0.00 0.00 0.00 38 1014.6
20260506095544 25 170 0.0 0.0 0.00 0.00 0.00 39 1014.6
20260506095047 25 170 0.0 0.0 0.00 0.00 0.00 42 1014.6
20260506094543 25 170 0.0 0.0 0.00 0.00 0.00 43 1014.7
20260506094041 24 170 0.0 0.0 0.00 0.00 0.00 44 1014.8
20260506093545 24 170 0.0 0.0 0.00 0.00 0.00 46 1014.8
20260506093040 24 170 0.0 0.0 0.00 0.00 0.00 46 1014.8
20260506092540 24 170 0.0 0.0 0.00 0.00 0.00 46 1014.8
20260506092041 24 170 0.0 0.0 0.00 0.00 0.00 45 1014.8
20260506091540 24 170 0.0 0.0 0.00 0.00 0.00 46 1014.8
20260506091036 24 170 0.0 0.0 0.00 0.00 0.00 45 1014.8
20260506090536 24 170 0.0 0.0 0.00 0.00 0.00 46 1014.8